Regional Weather Roundup
Issued by NWS Glasgow, MT

Home | Current Version | Previous Version | Text Only | Print | Product List | Glossary On
Versions: 1 2 3 4 5 6 7 8 9 10 11 12 13 14 15 16 17 18 19 20 21 22 23 24 25 26 27 28 29 30 31 32 33 34 35 36 37 38 39 40 41 42 43 44 45 46 47 48 49 50
000
ASUS45 KGGW 041015
RWRGGW
HOURLY REGIONAL WEATHER ROUNDUP FOR NORTHEAST MONTANA
NATIONAL WEATHER SERVICE GLASGOW MONTANA
400 AM MDT TUE AUG 04 2015

NOTE: "FAIR" INDICATES FEW OR NO CLOUDS BELOW 12,000 FEET WITH NO
SIGNIFICANT WEATHER AND/OR OBSTRUCTIONS TO VISISBILITY.

NORTHEAST MONTANA


CITY           SKY/WX    TMP DP  RH WIND       PRES   REMARKS
GLASGOW        CLEAR     66  47  50 E18       29.86F
PLENTYWOOD       N/A     60  49  66 E2          N/A
WOLF POINT     PTCLDY    61  48  62 NE10      29.91S
JORDAN           N/A     67  49  52 E10       29.85F
WINNETT          N/A     64  48  56 NE2         N/A
SIDNEY         PTCLDY    59  46  63 N6        29.93F
GLENDIVE         N/A    N/A N/A N/A MISG        N/A
MALTA            N/A     67  50  54 E3G14       N/A
SCOBEY           N/A     61  47  59 E9        29.93F

FORT PECK REPORTS


CITY           SKY/WX    TMP DP  RH WIND       PRES   REMARKS
FORT PECK        N/A     64  48  56 NE18        N/A
THE PINES        N/A     66  48  52 NE3         N/A

SOUTHEAST MONTANA


CITY           SKY/WX    TMP DP  RH WIND       PRES   REMARKS
BILLINGS       PTCLDY    71  47  42 SW9       29.89R
MILES CITY     PTCLDY    68  52  56 E8        29.87F
BAKER          PTCLDY    60  51  72 E10       29.94S
LIVINGSTON     MOCLDY    70  48  45 W16       29.97S

CENTRAL MONTANA


CITY           SKY/WX    TMP DP  RH WIND       PRES   REMARKS
HAVRE          PTCLDY    67  51  56 NE12      29.76F
LEWISTOWN      PTCLDY    63  47  55 S7        29.90S
GREAT FALLS    CLOUDY    73  41  31 SW12      29.85R
CUT BANK       CLOUDY    71  38  29 W8        29.85R
HELENA         CLOUDY    79  43  27 SW8       29.94F
BUTTE          CLOUDY    63  50  62 S9        30.08S
BOZEMAN        CLOUDY    61  55  81 CALM      30.01R

WESTERN MONTANA


CITY           SKY/WX    TMP DP  RH WIND       PRES   REMARKS
MISSOULA       CLOUDY    70  42  36 CALM      29.93S
KALISPELL      NOT AVBL

NORTH DAKOTA


CITY           SKY/WX    TMP DP  RH WIND       PRES   REMARKS
WILLISTON      PTCLDY    60  50  69 NE3       29.96S
DICKINSON      PTCLDY    53  48  83 E9        29.95F
MINOT          CLEAR     54  49  83 SW3       29.98S
BISMARCK       CLEAR     54  49  83 NE7       29.98S

SOUTHERN SASKATCHEWAN


CITY           SKY/WX    TMP DP  RH WIND       PRES   REMARKS
REGINA         PTCLDY    57  48  72 SE10      29.98S
MOOSE JAW      PTCLDY    54  52  94 SE7       29.96
ESTEVAN        PTCLDY    50  48  93 SE5       29.99R
SWIFT CURRENT  CLEAR     59  52  77 SE10      29.90S




USA.gov is the U.S. government's official web portal to all federal, state and local government web resources and services.